Regional Weather Roundup
Issued by NWS San Diego, CA

Home | Current Version | Previous Version | Text Only | Print | Product List | Glossary On
Versions: 1 2 3 4 5 6 7 8 9 10 11 12 13 14 15 16 17 18 19 20 21 22 23 24 25 26 27 28 29 30 31 32 33 34 35 36 37 38 39 40 41 42 43 44 45 46 47 48 49 50
000
ASUS46 KSGX 261710
RWRSGX

SAN DIEGO HOURLY WEATHER ROUNDUP
NATIONAL WEATHER SERVICE SAN DIEGO CA
900 AM PST FRI DEC 26 2014

NOTE: "FAIR" INDICATES FEW OR NO CLOUDS BELOW 12,000 FEET WITH NO
SIGNIFICANT WEATHER AND/OR OBSTRUCTIONS TO VISIBILITY.

CAZ042-043-060-061-PZZ750-775-261800-

GREATER SAN DIEGO AREA

CITY           SKY/WX    TMP DP  RH WIND       PRES   REMARKS
LINDBERGH FLD  SUNNY     55  21  26 E3        30.08R
POINT LOMA       N/A     55  28  35 E7          N/A
NATIONAL CITY    N/A     53  29  40 NE2       30.08R
CHULA VISTA      N/A     52  40  63 CALM      30.00R
IMPERIAL BEACH SUNNY     58  20  22 E15G22    30.07R
BROWN FIELD    SUNNY     55  16  21 SE18      30.05R
MIRAMAR MCAS   SUNNY     54  25  32 E5        30.06R
MONTGOMERY FLD SUNNY     52  26  36 E6        30.07R

$$

NORTH SAN DIEGO COUNTY

CITY           SKY/WX    TMP DP  RH WIND       PRES   REMARKS
CAMP PENDLETON SUNNY     55  18  23 NE8G16    30.07R
OCEANSIDE AP   SUNNY     50  24  36 NE7       30.06R
OCEANSIDE HBR    N/A     52  27  38 NE3       30.09R
VISTA            N/A     50  26  39 CALM      30.06R
CARLSBAD       SUNNY     53  21  28 NE3       30.06R
DEL MAR          N/A     50  32  49 CALM      30.09R
LA JOLLA SCRIP   N/A     53  31  43 CALM      30.05R
FALLBROOK        N/A     52  21  29 SE8       30.09R
ESCONDIDO        N/A     49  32  51 CALM      30.09R
SAN MARCOS       N/A     52  25  35 CALM      30.05R
POWAY            N/A     42  36  79 CALM      30.11R

$$

EAST SAN DIEGO COUNTY

CITY           SKY/WX    TMP DP  RH WIND       PRES   REMARKS
RAMONA         SUNNY     50  25  37 CALM      30.05R
SANTEE LAKES     N/A     44  36  73 CALM      30.09R
LA MESA          N/A     49  30  47 CALM      30.01R
JAMUL            N/A     53  24  33 S6        30.07R
DESCANSO N       N/A     43  16  32 E9        30.01R
MT. LAGUNA OBS   N/A     29   7  38 CALM      29.59R
CAMPO            N/A     45  13  27 E21       30.01R

$$

ORANGE COUNTY AND THE LOS ANGELES BASIN

CITY           SKY/WX    TMP DP  RH WIND       PRES   REMARKS
JOHN WAYNE AP  SUNNY     61  11  14 NE13      30.06R
LAGUNA BEACH     N/A     49  27  42 CALM      30.02R
LAKE FOREST FR   N/A     53  10  17 NE7       29.95R
SANTA ANA        N/A     58  20  23 NE7       30.02R
HUNTINGTON BCH   N/A     57  22  25 NE12      30.09R
LOS ALAMITOS   SUNNY     56  19  23 NE16G26   30.07R
FULLERTON      SUNNY     57  16  20 E15       30.07R
LONG BEACH     SUNNY     55  27  34 E5        30.07R
L.A. AP        SUNNY     51  24  34 CALM      30.08R
L.A. DOWNTOWN  SUNNY     49  26  41 CALM      30.07R

$$

THE INLAND EMPIRE

CITY           SKY/WX    TMP DP  RH WIND       PRES   REMARKS
CORONA         SUNNY     55  15  20 E13G18    30.10R
CHINO          SUNNY     54  17  23 E15G22    30.08R
ONTARIO        SUNNY     53  13  20 NE21G37   30.04S
SAN BERNARDINO SUNNY     52   9  17 N10       30.08R
RIVERSIDE AP   SUNNY     53  13  20 N9G17     30.08R
RIV CYN CREST    N/A     51  28  42 S3          N/A
MORENO VALLEY    N/A     51  24  35 CALM      29.25R
MARCH ARB      SUNNY     49  16  26 N3        30.07R
HORSETHIEF CYN   N/A     49  10  20 NW12      30.09R
PERRIS           N/A     43  30  59 S1        30.09R
MENIFEE          N/A     42  32  66 CALM      30.14R
HEMET EAST       N/A     42  13  29 CALM      30.10R
FRENCH VALLEY  FAIR      43  23  45 N3        30.08R
TEMECULA         N/A     40  32  73 W1        30.03S

$$

SAN BERNARDINO AND RIVERSIDE COUNTY MOUNTAINS

CITY           SKY/WX    TMP DP  RH WIND       PRES   REMARKS
BIG BEAR AP    SUNNY     23   5  46 E6        30.02R WCI  16
ANGELUS OAKS     N/A     28   6  38 CALM      30.09R
PINE COVE        N/A     29   9  43 CALM      30.13R

$$

SOUTHERN DESERT INCLUDING THE COACHELLA VALLEY

CITY           SKY/WX    TMP DP  RH WIND       PRES   REMARKS
PALM SPRINGS   SUNNY     56  11  16 VRB7      30.14R
THOUSAND PALMS   N/A     56  17  21 S3        30.09R
PALM DESERT      N/A     55  18  24 N3        31.45S
THERMAL        SUNNY     57  15  19 NW12      30.10R
BLYTHE         SUNNY     50  18  28 W3        30.09R
IMPERIAL AP    SUNNY     53  23  31 W3        30.11R
EL CENTRO NAS  SUNNY     50  27  40 SW5       30.12R
YUMA AZ        SUNNY     56  14  19 W6        30.09R
MEXICALI       SUNNY     52  16  24 W7        30.11

$$

UPPER DESERT

CITY           SKY/WX    TMP DP  RH WIND       PRES   REMARKS
VICTORVILLE AP   N/A     36  18  48 CALM      30.11R
HESPERIA         N/A     37  20  50 CALM      30.33R
PALMDALE       SUNNY     34  26  72 CALM      30.12R
LANCASTER      SUNNY     33  26  75 CALM      30.14R
EDWARDS AFB    SUNNY     32  25  74 S6        29.99S WCI  26
DAGGETT        SUNNY     46  12  25 CALM      30.13R
29 PALMS N     SUNNY     44  14  29 NW13      30.17R
NEEDLES        SUNNY     50  13  22 N13       30.09R

$$

REGIONAL REPORTS

CITY           SKY/WX    TMP DP  RH WIND       PRES   REMARKS
SANTA BARBARA  SUNNY     53  34  48 CALM      30.09R
SANDBERG       SUNNY     35  15  44 NE10      30.06R WCI  27
MT. WILSON       N/A     36   3  25 MISG        N/A
LAS VEGAS NV   FAIR      44  10  25 NW16G24   30.04R
PHOENIX AZ     SUNNY     46  19  34 CALM      30.03R
TIJUANA        SUNNY     55  12  18 E14       30.08R
ENSENADA NW      N/A     58  32  38 N26       30.03R

$$

OFFSHORE ISLANDS

CITY           SKY/WX    TMP DP  RH WIND       PRES   REMARKS
CATALINA ARPT  SUNNY     50  25  37 E10       30.07R
SAN CLEMENTE I SUNNY     60  32  34 E9        30.05R
SAN NICOLAS IS SUNNY     57  32  38 NE14      30.07R

$$

MARINE AND OFFSHORE BUOY REPORTS

STATION/POSITION SKY/WX   TEMP    WIND        PRES    SWELL
                          AIR SEA DIR/SP/G            HT/PER/DIR
                          (F)     (DEG/KT/KT) (MB)    (FT/S/D)
TANNER BANKS               60 63   10/ 14/ 19 1017.9R  10/310/11
S CLEMENTE BASIN           59 64   60/ 14/ 17 1017.5R   7/280/15
SAN NICOLAS IS.               61                N/A     7/310/11
SO. S. ROSA ISLA           55 59  340/ 10/ 14 1018.7R  10/11
W. S. BARBARA CH           55 61  350/ 17/ 21 1018.6R  10/310/10
S. MONICA BASIN            58 63   50/ 19/ 23 1018.0R   3/320/15
S PEDRO CHANNEL               63                N/A     3/280/11
DANA POINT                    63                N/A     3/280/14
CMP PENDLETON NS              63                N/A     2/230/13
OCEANSIDE OFFSHR              64                N/A     2/240/13
TORREY PINES OTR              64                N/A     3/280/14
LA JOLLA 1                 54 63  110/  7/ 12 1018.1R
MISSION BAY BUOY              64                N/A     5/280/13
SAN DIEGO BAY                 63              1018.6R
POINT LOMA SOUTH              64                N/A     5/270/15

$$



USA.gov is the U.S. government's official web portal to all federal, state and local government web resources and services.